Regional Weather Roundup
Issued by NWS

Home | Current Version | Previous Version | Text Only | Print | Product List | Glossary Off
Versions: 1 2 3 4 5 6 7 8 9 10 11 12 13 14 15 16 17 18 19 20 21 22 23 24 25 26 27 28 29 30 31 32 33 34 35 36 37 38 39 40 41 42 43 44 45 46 47 48 49 50

000
ASUS43 KLSX 291810
RWRMO

WEATHER SUMMARY FOR MISSOURI
NATIONAL WEATHER SERVICE SPRINGFIELD MO
100 PM CDT MON AUG 29 2016

NOTE: "FAIR" INDICATES FEW OR NO CLOUDS BELOW 12,000 FEET WITH NO
       SIGNIFICANT WEATHER AND/OR OBSTRUCTIONS TO VISIBILITY.
       CURRENT SKY AND/OR WEATHER CONDITIONS ARE NOT AVAILABLE FOR
       CHILLICOTHE AND FARMINGTON.

MOZ001>031-035>038-043-044-053-054-291900-
...NORTHERN AND WESTERN MISSOURI...

CITY           SKY/WX    TMP DP  RH WIND       PRES   REMARKS
KANSAS CTY INT MOSUNNY   88  71  57 S6        30.20F HX  94
6HR MIN TEMP:  70; 6HR MAX TEMP:  88;

KANSAS C DTWN  PTSUNNY   88  70  55 E6        30.18F HX  93
6HR MIN TEMP:  72; 6HR MAX TEMP:  90;

LEE`S SUMMIT   CLOUDY    85  72  65 NE7       30.21S HX  91
6HR MIN TEMP:  70; 6HR MAX TEMP:  87;

ST JOSEPH      PTSUNNY   89  70  53 CALM      30.19S HX  94
6HR MIN TEMP:  69; 6HR MAX TEMP:  89;

CHILLICOTHE      N/A     91  74  57 CALM      30.20F HX 100
6HR MIN TEMP:  70; 6HR MAX TEMP:  91;

KIRKSVILLE     PTSUNNY   87  74  64 NE3       30.22F HX  95
6HR MIN TEMP:  69; 6HR MAX TEMP:  88;


$$
MOZ066>068-077>081-088>096-101>105-291900-
...SOUTHWEST MISSOURI...

CITY           SKY/WX    TMP DP  RH WIND       PRES   REMARKS
SPRINGFIELD    MOSUNNY   91  65  41 CALM      30.18F HX  93
6HR MIN TEMP:  72; 6HR MAX TEMP:  91;

JOPLIN         MOSUNNY   88  71  57 SW6       30.17F HX  94
6HR MIN TEMP:  71; 6HR MAX TEMP:  89;

BRANSON        MOSUNNY   88  72  58 E6        30.20F HX  94

$$
MOZ032>034-039>042-045>050-055>058-069>072-291900-
...CENTRAL MISSOURI...

CITY           SKY/WX    TMP DP  RH WIND       PRES   REMARKS
COLUMBIA       MOSUNNY   88  73  61 SE3       30.20F HX  95
6HR MIN TEMP:  72; 6HR MAX TEMP:  89;

JEFFERSON CITY SUNNY     90  72  55 CALM      30.17F HX  97
6HR MIN TEMP:  70; 6HR MAX TEMP:  90;

ROLLA          SUNNY     88  70  55 VRB3      30.20F HX  93
6HR MIN TEMP:  71; 6HR MAX TEMP:  89;

SEDALIA        MOSUNNY   88  70  55 E3        30.21F HX  93
6HR MIN TEMP:  70; 6HR MAX TEMP:  89;

WHITEMAN AFB   PTSUNNY   86  74  67 VRB1      30.18F HX  93
OSAGE BEACH    SUNNY     88  70  55 CALM      30.20F HX  93

$$
MOZ051-052-059>065-291900-
...EAST CENTRAL MISSOURI...

CITY           SKY/WX    TMP DP  RH WIND       PRES   REMARKS
ST LOUIS INTL  MOSUNNY   92  71  50 SE8       30.20F HX  98
6HR MIN TEMP:  77; 6HR MAX TEMP:  92;

SPIRIT OF STL  PTSUNNY   89  73  59 NE8       30.17F HX  97
6HR MIN TEMP:  71; 6HR MAX TEMP:  91;

ST CHARLES     MOSUNNY   89  75  63 E7        30.18F HX  99
6HR MIN TEMP:  73; 6HR MAX TEMP:  90;


$$
MOZ072>076-082>087-097>100-106>115-291900-
...SOUTH CENTRAL AND SOUTHEAST MISSOURI...

CITY           SKY/WX    TMP DP  RH WIND       PRES   REMARKS
CAPE GIRARDEAU SUNNY     90  71  53 NE9       30.16F HX  96
6HR MIN TEMP:  74; 6HR MAX TEMP:  90;

FARMINGTON     CLOUDY    86  73  65 E6        30.20F HX  93
6HR MIN TEMP:  70; 6HR MAX TEMP:  90;

POPLAR BLUFF   SUNNY     90  75  61 NE10      30.14F HX 100
6HR MIN TEMP:  74; 6HR MAX TEMP:  90;

WEST PLAINS    MOSUNNY   89  70  53 E7        30.21F HX  94
6HR MIN TEMP:  70; 6HR MAX TEMP:  89;


$$




USA.gov is the U.S. government's official web portal to all federal, state and local government web resources and services.